SQ9IWE-13 Weather Reports


Display with metric or nautical units.
time (UTC)temp
F
wind
direction
speed
MPH
gust
MPH
rain 1hr
in
rain 24hr
in
rain mn
in
humidity
%
barometer
mb
20260507221001 55 0.0 0.0 0.00 0.00 0.00 100 1014.4
20260507220001 55 0.0 0.0 0.00 0.00 0.00 100 1014.1
20260507215001 55 0.0 0.0 0.00 0.00 0.00 100 1014.2
20260507214001 55 0.0 0.0 0.00 0.00 0.00 100 1014.3
20260507212001 55 0.0 0.0 0.00 0.00 0.00 100 1014.2
20260507211000 55 0.0 0.0 0.00 0.00 0.00 100 1014.1
20260507210001 55 0.0 0.0 0.00 0.00 0.00 100 1013.9
20260507205000 55 0.0 0.0 0.00 0.00 0.00 100 1013.7
20260507204001 55 0.0 0.0 0.00 0.00 0.00 100 1013.5
20260507203000 55 0.0 0.0 0.00 0.00 0.00 100 1013.5
20260507202000 55 0.0 0.0 0.00 0.00 0.00 100 1013.3
20260507201000 55 0.0 0.0 0.00 0.00 0.00 100 1013.5
20260507200000 55 0.0 0.0 0.00 0.00 0.00 100 1013.6
20260507195000 55 0.0 0.0 0.00 0.00 0.00 100 1013.7
20260507194000 55 0.0 0.0 0.00 0.00 0.00 100 1013.4
20260507193000 55 0.0 0.0 0.00 0.00 0.00 100 1013.0
20260507192000 55 0.0 0.0 0.00 0.00 0.00 99 1012.9
20260507191000 55 0.0 0.0 0.00 0.00 0.00 100 1012.8
20260507190001 55 0.0 0.0 0.00 0.00 0.00 100 1012.9
20260507185001 56 0.0 0.0 0.00 0.00 0.00 100 1012.9
20260507184001 56 0.0 0.0 0.00 0.00 0.00 100 1012.8
20260507183001 58 0.0 0.0 0.00 0.00 0.00 93 1012.6
20260507182001 59 0.0 0.0 0.00 0.00 0.00 87 1012.6
20260507181001 60 0.0 0.0 0.00 0.00 0.00 84 1012.5
20260507180001 60 0.0 0.0 0.00 0.00 0.00 83 1011.7
20260507175001 59 0.0 0.0 0.00 0.00 0.00 84 1011.3
20260507173001 60 0.0 0.0 0.00 0.00 0.00 81 1011.0
20260507172001 63 0.0 0.0 0.00 0.00 0.00 76 1011.3
20260507171001 61 0.0 0.0 0.00 0.00 0.00 80 1010.9
20260507170001 62 0.0 0.0 0.00 0.00 0.00 79 1010.7
20260507165001 64 0.0 0.0 0.00 0.00 0.00 74 1010.7
20260507164001 64 0.0 0.0 0.00 0.00 0.00 71 1010.5
20260507162001 65 0.0 0.0 0.00 0.00 0.00 68 1010.1
20260507161001 65 0.0 0.0 0.00 0.00 0.00 68 1010.1
20260507160001 65 0.0 0.0 0.00 0.00 0.00 70 1010.2
20260507155001 65 0.0 0.0 0.00 0.00 0.00 71 1010.2
20260507154001 65 0.0 0.0 0.00 0.00 0.00 70 1010.2
20260507153001 66 0.0 0.0 0.00 0.00 0.00 69 1010.3
20260507152001 66 0.0 0.0 0.00 0.00 0.00 68 1010.4
20260507151001 66 0.0 0.0 0.00 0.00 0.00 67 1010.2
20260507150001 66 0.0 0.0 0.00 0.00 0.00 67 1010.2
20260507145001 66 0.0 0.0 0.00 0.00 0.00 66 1010.1
20260507144001 66 0.0 0.0 0.00 0.00 0.00 66 1010.1
20260507143001 67 0.0 0.0 0.00 0.00 0.00 63 1010.1
20260507142001 68 0.0 0.0 0.00 0.00 0.00 61 1010.2
20260507141001 69 0.0 0.0 0.00 0.00 0.00 57 1010.2
20260507140001 70 0.0 0.0 0.00 0.00 0.00 58 1010.3
20260507135001 70 0.0 0.0 0.00 0.00 0.00 58 1010.2
20260507134001 69 0.0 0.0 0.00 0.00 0.00 57 1010.3
20260507133000 69 0.0 0.0 0.00 0.00 0.00 57 1010.4
20260507132000 69 0.0 0.0 0.00 0.00 0.00 56 1010.3
20260507131000 69 0.0 0.0 0.00 0.00 0.00 59 1010.3
20260507125000 70 0.0 0.0 0.00 0.00 0.00 57 1010.4
20260507124000 70 0.0 0.0 0.00 0.00 0.00 56 1010.5
20260507123000 72 0.0 0.0 0.00 0.00 0.00 57 1010.4
20260507122000 70 0.0 0.0 0.00 0.00 0.00 59 1010.5
20260507121000 68 0.0 0.0 0.00 0.00 0.00 62 1010.7
20260507120000 69 0.0 0.0 0.00 0.00 0.00 62 1010.8
20260507115000 72 0.0 0.0 0.00 0.00 0.00 55 1010.7
20260507114001 73 0.0 0.0 0.00 0.00 0.00 53 1010.6
20260507113001 72 0.0 0.0 0.00 0.00 0.00 55 1010.5
20260507112001 71 0.0 0.0 0.00 0.00 0.00 55 1010.5
20260507111001 72 0.0 0.0 0.00 0.00 0.00 57 1010.6
20260507110001 70 0.0 0.0 0.00 0.00 0.00 58 1010.7
20260507105001 71 0.0 0.0 0.00 0.00 0.00 58 1010.6
20260507104001 71 0.0 0.0 0.00 0.00 0.00 60 1010.5
20260507103001 71 0.0 0.0 0.00 0.00 0.00 59 1010.4
20260507102001 70 0.0 0.0 0.00 0.00 0.00 60 1010.5
20260507101001 69 0.0 0.0 0.00 0.00 0.00 61 1010.6
20260507100001 70 0.0 0.0 0.00 0.00 0.00 60 1010.5
20260507095001 70 0.0 0.0 0.00 0.00 0.00 60 1010.3
20260507094001 70 0.0 0.0 0.00 0.00 0.00 61 1010.3
20260507093001 70 0.0 0.0 0.00 0.00 0.00 61 1010.2
20260507092001 69 0.0 0.0 0.00 0.00 0.00 62 1010.2
20260507091001 70 0.0 0.0 0.00 0.00 0.00 62 1010.1
20260507090001 70 0.0 0.0 0.00 0.00 0.00 62 1009.8
20260507085001 69 0.0 0.0 0.00 0.00 0.00 64 1009.8
20260507084001 67 0.0 0.0 0.00 0.00 0.00 67 1009.7
20260507083001 70 0.0 0.0 0.00 0.00 0.00 62 1009.6
20260507082001 70 0.0 0.0 0.00 0.00 0.00 65 1009.4
20260507081001 66 0.0 0.0 0.00 0.00 0.00 71 1009.5
20260507080001 66 0.0 0.0 0.00 0.00 0.00 70 1009.5
20260507075001 65 0.0 0.0 0.00 0.00 0.00 71 1009.4
20260507074001 66 0.0 0.0 0.00 0.00 0.00 68 1009.1
20260507073001 7 0.0 0.0 0.00 0.00 0.00 68 19.8
20260507072001 66 0.0 0.0 0.00 0.00 0.00 70 1008.8
20260507071001 66 0.0 0.0 0.00 0.00 0.00 70 1008.8
20260507070001 65 0.0 0.0 0.00 0.00 0.00 71 1008.6
20260507065001 64 0.0 0.0 0.00 0.00 0.00 72 1008.6
20260507064000 63 0.0 0.0 0.00 0.00 0.00 75 1008.7
20260507063000 62 0.0 0.0 0.00 0.00 0.00 77 1008.6
20260507062000 61 0.0 0.0 0.00 0.00 0.00 77 1008.6
20260507061000 62 0.0 0.0 0.00 0.00 0.00 77 1008.5
20260507060000 61 0.0 0.0 0.00 0.00 0.00 78 1008.3
20260507055000 61 0.0 0.0 0.00 0.00 0.00 78 1008.2
20260507054000 61 0.0 0.0 0.00 0.00 0.00 78 1008.2
20260507053000 61 0.0 0.0 0.00 0.00 0.00 77 1008.1
20260507052000 61 0.0 0.0 0.00 0.00 0.00 76 1008.0
20260507051000 61 0.0 0.0 0.00 0.00 0.00 75 1007.8
20260507050000 61 0.0 0.0 0.00 0.00 0.00 74 1007.9
20260507045001 61 0.0 0.0 0.00 0.00 0.00 73 1007.6
20260507044001 62 0.0 0.0 0.00 0.00 0.00 73 1007.5
20260507043001 62 0.0 0.0 0.00 0.00 0.00 72 1007.4
20260507042001 61 0.0 0.0 0.00 0.00 0.00 73 1007.2
20260507041001 61 0.0 0.0 0.00 0.00 0.00 73 1007.2
20260507040001 61 0.0 0.0 0.00 0.00 0.00 74 1007.0
20260507035001 61 0.0 0.0 0.00 0.00 0.00 75 1007.0
20260507034001 60 0.0 0.0 0.00 0.00 0.00 76 1007.0
20260507033001 60 0.0 0.0 0.00 0.00 0.00 76 1006.8
20260507032001 60 0.0 0.0 0.00 0.00 0.00 76 1006.8
20260507031001 59 0.0 0.0 0.00 0.00 0.00 77 1006.7
20260507030001 59 0.0 0.0 0.00 0.00 0.00 77 1006.5
20260507025001 59 0.0 0.0 0.00 0.00 0.00 77 1006.6
20260507024001 59 0.0 0.0 0.00 0.00 0.00 77 1006.6
20260507023001 59 0.0 0.0 0.00 0.00 0.00 76 1006.6
20260507022001 59 0.0 0.0 0.00 0.00 0.00 75 1006.5
20260507021001 60 0.0 0.0 0.00 0.00 0.00 74 1006.4
20260507020001 61 0.0 0.0 0.00 0.00 0.00 72 1006.3
20260507015001 61 0.0 0.0 0.00 0.00 0.00 72 1006.3
20260507014001 61 0.0 0.0 0.00 0.00 0.00 71 1006.3
20260507013001 62 0.0 0.0 0.00 0.00 0.00 70 1006.4
20260507012001 62 0.0 0.0 0.00 0.00 0.00 69 1006.3
20260507011001 62 0.0 0.0 0.00 0.00 0.00 69 1006.1
20260507010001 63 0.0 0.0 0.00 0.00 0.00 68 1006.0
20260507005001 63 0.0 0.0 0.00 0.00 0.00 68 1006.0
20260507004001 63 0.0 0.0 0.00 0.00 0.00 68 1006.2
20260507003001 63 0.0 0.0 0.00 0.00 0.00 67 1006.1
20260507002001 63 0.0 0.0 0.00 0.00 0.00 67 1006.1
20260507001000 64 0.0 0.0 0.00 0.00 0.00 67 1006.1
20260507000000 64 0.0 0.0 0.00 0.00 0.00 66 1006.1
20260506235000 64 0.0 0.0 0.00 0.00 0.00 65 1006.2
20260506234000 64 0.0 0.0 0.00 0.00 0.00 65 1006.2
20260506233000 64 0.0 0.0 0.00 0.00 0.00 65 1006.2
20260506232000 64 0.0 0.0 0.00 0.00 0.00 66 1006.2
20260506231000 64 0.0 0.0 0.00 0.00 0.00 65 1006.2
20260506230000 64 0.0 0.0 0.00 0.00 0.00 64 1006.2
20260506225000 64 0.0 0.0 0.00 0.00 0.00 64 1006.2
20260506224000 65 0.0 0.0 0.00 0.00 0.00 63 1006.2
20260506223000 65 0.0 0.0 0.00 0.00 0.00 62 1006.3
20260506222000 65 0.0 0.0 0.00 0.00 0.00 62 1006.2